owner,sensor,date,latitude,longitude,vertical_datum,sea_water_practical_salinity,qcFlag 
SCCF RECON,ioos:station:SCCF:51:1,2012-02-01T00:00:00Z,26.5545,-82.1715,2.159,34.31,1111122 
SCCF RECON,ioos:station:SCCF:51:1,2012-02-01T01:00:00Z,26.5545,-82.1715,2.123,33.92,1111122 
SCCF RECON,ioos:station:SCCF:51:1,2012-02-01T02:00:00Z,26.5545,-82.1715,2.071,33.74,1111122 
SCCF RECON,ioos:station:SCCF:51:1,2012-02-01T03:00:00Z,26.5545,-82.1715,1.995,33.57,1111122 
SCCF RECON,ioos:station:SCCF:51:1,2012-02-01T04:00:00Z,26.5545,-82.1715,1.913,33.49,1111122 
SCCF RECON,ioos:station:SCCF:51:1,2012-02-01T05:00:00Z,26.5545,-82.1715,1.827,33.35,1111122 
SCCF RECON,ioos:station:SCCF:51:1,2012-02-01T06:00:00Z,26.5545,-82.1715,1.746,33.25,1111122 
SCCF RECON,ioos:station:SCCF:51:1,2012-02-01T07:00:00Z,26.5545,-82.1715,1.672,33.26,1111122 
SCCF RECON,ioos:station:SCCF:51:1,2012-02-01T08:00:00Z,26.5545,-82.1715,1.64,33.32,1111122 
SCCF RECON,ioos:station:SCCF:51:1,2012-02-01T09:00:00Z,26.5545,-82.1715,1.677,33.37,1111122 
SCCF RECON,ioos:station:SCCF:51:1,2012-02-01T10:00:00Z,26.5545,-82.1715,1.745,33.41,1111122 
SCCF RECON,ioos:station:SCCF:51:1,2012-02-01T11:00:00Z,26.5545,-82.1715,1.835,33.44,1111122 
SCCF RECON,ioos:station:SCCF:51:1,2012-02-01T12:00:00Z,26.5545,-82.1715,1.92,33.9,1111122 
SCCF RECON,ioos:station:SCCF:51:1,2012-02-01T13:00:00Z,26.5545,-82.1715,1.973,34.2,1111122 
SCCF RECON,ioos:station:SCCF:51:1,2012-02-01T14:00:00Z,26.5545,-82.1715,1.998,33.98,1111122 
SCCF RECON,ioos:station:SCCF:51:1,2012-02-01T15:00:00Z,26.5545,-82.1715,2.006,33.89,1111122 
SCCF RECON,ioos:station:SCCF:51:1,2012-02-01T16:00:00Z,26.5545,-82.1715,2.017,33.78,1111122 
SCCF RECON,ioos:station:SCCF:51:1,2012-02-01T17:00:00Z,26.5545,-82.1715,2.02,33.69,1111122 
SCCF RECON,ioos:station:SCCF:51:1,2012-02-01T18:00:00Z,26.5545,-82.1715,2.025,34.13,1111122 
SCCF RECON,ioos:station:SCCF:51:1,2012-02-01T19:00:00Z,26.5545,-82.1715,2.035,34.11,1111122 
SCCF RECON,ioos:station:SCCF:51:1,2012-02-01T20:00:00Z,26.5545,-82.1715,2.067,34.09,1111122 
SCCF RECON,ioos:station:SCCF:51:1,2012-02-01T21:00:00Z,26.5545,-82.1715,2.1,34.06,1111122 
SCCF RECON,ioos:station:SCCF:51:1,2012-02-01T22:00:00Z,26.5545,-82.1715,2.149,34.41,1111122 
SCCF RECON,ioos:station:SCCF:51:1,2012-02-01T23:00:00Z,26.5545,-82.1715,2.18,34.46,1111122 
SCCF RECON,ioos:station:SCCF:51:1,2012-02-02T00:00:00Z,26.5545,-82.1715,2.19,34.47,1111122 
SCCF RECON,ioos:station:SCCF:51:1,2012-02-02T01:00:00Z,26.5545,-82.1715,2.151,34.52,1111122 
SCCF RECON,ioos:station:SCCF:51:1,2012-02-02T02:00:00Z,26.5545,-82.1715,2.109,34.32,1111122 
SCCF RECON,ioos:station:SCCF:51:1,2012-02-02T03:00:00Z,26.5545,-82.1715,2.05,34.15,1111122 
SCCF RECON,ioos:station:SCCF:51:1,2012-02-02T04:00:00Z,26.5545,-82.1715,1.99,34.13,1111122 
SCCF RECON,ioos:station:SCCF:51:1,2012-02-02T05:00:00Z,26.5545,-82.1715,1.908,33.59,1111122 
SCCF RECON,ioos:station:SCCF:51:1,2012-02-02T06:00:00Z,26.5545,-82.1715,1.807,33.49,1111122 
SCCF RECON,ioos:station:SCCF:51:1,2012-02-02T07:00:00Z,26.5545,-82.1715,1.716,33.54,1111122 
SCCF RECON,ioos:station:SCCF:51:1,2012-02-02T08:00:00Z,26.5545,-82.1715,1.637,33.45,1111122 
SCCF RECON,ioos:station:SCCF:51:1,2012-02-02T09:00:00Z,26.5545,-82.1715,1.6,33.48,1111122 
SCCF RECON,ioos:station:SCCF:51:1,2012-02-02T10:00:00Z,26.5545,-82.1715,1.626,33.55,1111122 
SCCF RECON,ioos:station:SCCF:51:1,2012-02-02T11:00:00Z,26.5545,-82.1715,1.681,33.62,1111122 
SCCF RECON,ioos:station:SCCF:51:1,2012-02-02T12:00:00Z,26.5545,-82.1715,1.77,33.77,1111122 
SCCF RECON,ioos:station:SCCF:51:1,2012-02-02T13:00:00Z,26.5545,-82.1715,1.853,34.17,1111122 
SCCF RECON,ioos:station:SCCF:51:1,2012-02-02T14:00:00Z,26.5545,-82.1715,1.909,34.29,1111122 
SCCF RECON,ioos:station:SCCF:51:1,2012-02-02T15:00:00Z,26.5545,-82.1715,1.96,34.16,1111122 
SCCF RECON,ioos:station:SCCF:51:1,2012-02-02T16:00:00Z,26.5545,-82.1715,2.001,34.26,1111122 
SCCF RECON,ioos:station:SCCF:51:1,2012-02-02T17:00:00Z,26.5545,-82.1715,2.012,34.14,1111122 
SCCF RECON,ioos:station:SCCF:51:1,2012-02-02T18:00:00Z,26.5545,-82.1715,1.978,34.3,1111122 
SCCF RECON,ioos:station:SCCF:51:1,2012-02-02T19:00:00Z,26.5545,-82.1715,1.958,34.3,1111122 
SCCF RECON,ioos:station:SCCF:51:1,2012-02-02T20:00:00Z,26.5545,-82.1715,1.974,34.35,1111122 
SCCF RECON,ioos:station:SCCF:51:1,2012-02-02T21:00:00Z,26.5545,-82.1715,2.002,34.19,1111122 
SCCF RECON,ioos:station:SCCF:51:1,2012-02-02T22:00:00Z,26.5545,-82.1715,2.047,34.31,1111122 
SCCF RECON,ioos:station:SCCF:51:1,2012-02-02T23:00:00Z,26.5545,-82.1715,2.094,34.57,1111122 
SCCF RECON,ioos:station:SCCF:51:1,2012-02-03T00:00:00Z,26.5545,-82.1715,2.147,34.54,1111122 
SCCF RECON,ioos:station:SCCF:51:1,2012-02-03T01:00:00Z,26.5545,-82.1715,2.17,34.55,1111122 
SCCF RECON,ioos:station:SCCF:51:1,2012-02-03T02:00:00Z,26.5545,-82.1715,2.18,34.55,1111122 
SCCF RECON,ioos:station:SCCF:51:1,2012-02-03T03:00:00Z,26.5545,-82.1715,2.12,34.49,1111122 
SCCF RECON,ioos:station:SCCF:51:1,2012-02-03T04:00:00Z,26.5545,-82.1715,2.04,34.49,1111122 
SCCF RECON,ioos:station:SCCF:51:1,2012-02-03T05:00:00Z,26.5545,-82.1715,1.95,34.32,1111122 
SCCF RECON,ioos:station:SCCF:51:1,2012-02-03T06:00:00Z,26.5545,-82.1715,1.84,34.04,1111122 
SCCF RECON,ioos:station:SCCF:51:1,2012-02-03T07:00:00Z,26.5545,-82.1715,1.731,33.86,1111122 
SCCF RECON,ioos:station:SCCF:51:1,2012-02-03T08:00:00Z,26.5545,-82.1715,1.645,33.63,1111122 
SCCF RECON,ioos:station:SCCF:51:1,2012-02-03T09:00:00Z,26.5545,-82.1715,1.572,33.56,1111122 
SCCF RECON,ioos:station:SCCF:51:1,2012-02-03T10:00:00Z,26.5545,-82.1715,1.533,33.64,1111122 
SCCF RECON,ioos:station:SCCF:51:1,2012-02-03T11:00:00Z,26.5545,-82.1715,1.582,33.74,1111122 
SCCF RECON,ioos:station:SCCF:51:1,2012-02-03T12:00:00Z,26.5545,-82.1715,1.681,33.75,1111122 
SCCF RECON,ioos:station:SCCF:51:1,2012-02-03T13:00:00Z,26.5545,-82.1715,1.783,33.98,1111122 
SCCF RECON,ioos:station:SCCF:51:1,2012-02-03T14:00:00Z,26.5545,-82.1715,1.879,34.42,1111122 
SCCF RECON,ioos:station:SCCF:51:1,2012-02-03T15:00:00Z,26.5545,-82.1715,1.957,34.44,1111122 
SCCF RECON,ioos:station:SCCF:51:1,2012-02-03T16:00:00Z,26.5545,-82.1715,1.997,34.28,1111122 
SCCF RECON,ioos:station:SCCF:51:1,2012-02-03T17:00:00Z,26.5545,-82.1715,2.025,34.36,1111122 
SCCF RECON,ioos:station:SCCF:51:1,2012-02-03T18:00:00Z,26.5545,-82.1715,2.018,34.15,1111122 
SCCF RECON,ioos:station:SCCF:51:1,2012-02-03T19:00:00Z,26.5545,-82.1715,1.991,34.11,1111122 
SCCF RECON,ioos:station:SCCF:51:1,2012-02-03T20:00:00Z,26.5545,-82.1715,1.974,34.13,1111122 
SCCF RECON,ioos:station:SCCF:51:1,2012-02-03T21:00:00Z,26.5545,-82.1715,2.024,34.14,1111122 
SCCF RECON,ioos:station:SCCF:51:1,2012-02-03T22:00:00Z,26.5545,-82.1715,2.079,34.31,1111122 
SCCF RECON,ioos:station:SCCF:51:1,2012-02-03T23:00:00Z,26.5545,-82.1715,2.14,34.52,1111122 
SCCF RECON,ioos:station:SCCF:51:1,2012-02-04T00:00:00Z,26.5545,-82.1715,2.202,34.5,1111122 
SCCF RECON,ioos:station:SCCF:51:1,2012-02-04T01:00:00Z,26.5545,-82.1715,2.237,34.56,1111122 
SCCF RECON,ioos:station:SCCF:51:1,2012-02-04T02:00:00Z,26.5545,-82.1715,2.251,34.62,1111122 
SCCF RECON,ioos:station:SCCF:51:1,2012-02-04T03:00:00Z,26.5545,-82.1715,2.213,34.58,1111122 
SCCF RECON,ioos:station:SCCF:51:1,2012-02-04T04:00:00Z,26.5545,-82.1715,2.156,34.26,1111122 
SCCF RECON,ioos:station:SCCF:51:1,2012-02-04T05:00:00Z,26.5545,-82.1715,2.09,34.0,1111122 
SCCF RECON,ioos:station:SCCF:51:1,2012-02-04T06:00:00Z,26.5545,-82.1715,1.987,33.78,1111122 
SCCF RECON,ioos:station:SCCF:51:1,2012-02-04T07:00:00Z,26.5545,-82.1715,1.859,33.66,1111122 
SCCF RECON,ioos:station:SCCF:51:1,2012-02-04T08:00:00Z,26.5545,-82.1715,1.734,33.6,1111122 
SCCF RECON,ioos:station:SCCF:51:1,2012-02-04T09:00:00Z,26.5545,-82.1715,1.624,33.43,1111122 
SCCF RECON,ioos:station:SCCF:51:1,2012-02-04T10:00:00Z,26.5545,-82.1715,1.539,33.37,1111122 
SCCF RECON,ioos:station:SCCF:51:1,2012-02-04T11:00:00Z,26.5545,-82.1715,1.515,33.36,1111122 
SCCF RECON,ioos:station:SCCF:51:1,2012-02-04T12:00:00Z,26.5545,-82.1715,1.578,33.45,1111122 
SCCF RECON,ioos:station:SCCF:51:1,2012-02-04T13:00:00Z,26.5545,-82.1715,1.683,33.55,1111122 
SCCF RECON,ioos:station:SCCF:51:1,2012-02-04T14:00:00Z,26.5545,-82.1715,1.798,33.6,1111122 
SCCF RECON,ioos:station:SCCF:51:1,2012-02-04T15:00:00Z,26.5545,-82.1715,1.891,34.05,1111122 
SCCF RECON,ioos:station:SCCF:51:1,2012-02-04T16:00:00Z,26.5545,-82.1715,1.946,33.75,1111122 
SCCF RECON,ioos:station:SCCF:51:1,2012-02-04T17:00:00Z,26.5545,-82.1715,1.967,33.8,1111122 
SCCF RECON,ioos:station:SCCF:51:1,2012-02-04T18:00:00Z,26.5545,-82.1715,1.971,33.84,1111122 
SCCF RECON,ioos:station:SCCF:51:1,2012-02-04T19:00:00Z,26.5545,-82.1715,1.947,33.58,1111122 
SCCF RECON,ioos:station:SCCF:51:1,2012-02-04T20:00:00Z,26.5545,-82.1715,1.954,33.58,1111122 
SCCF RECON,ioos:station:SCCF:51:1,2012-02-04T21:00:00Z,26.5545,-82.1715,1.961,33.76,1111122 
SCCF RECON,ioos:station:SCCF:51:1,2012-02-04T22:00:00Z,26.5545,-82.1715,1.992,33.93,1111122 
SCCF RECON,ioos:station:SCCF:51:1,2012-02-04T23:00:00Z,26.5545,-82.1715,2.05,33.81,1111122 
SCCF RECON,ioos:station:SCCF:51:1,2012-02-05T00:00:00Z,26.5545,-82.1715,2.117,34.39,1111122 
SCCF RECON,ioos:station:SCCF:51:1,2012-02-05T01:00:00Z,26.5545,-82.1715,2.191,34.77,1111122 
SCCF RECON,ioos:station:SCCF:51:1,2012-02-05T02:00:00Z,26.5545,-82.1715,2.258,34.76,1111122 
SCCF RECON,ioos:station:SCCF:51:1,2012-02-05T03:00:00Z,26.5545,-82.1715,2.291,34.55,1111122 
SCCF RECON,ioos:station:SCCF:51:1,2012-02-05T04:00:00Z,26.5545,-82.1715,2.262,34.29,1111122 
SCCF RECON,ioos:station:SCCF:51:1,2012-02-05T05:00:00Z,26.5545,-82.1715,2.199,34.2,1111122 
SCCF RECON,ioos:station:SCCF:51:1,2012-02-05T06:00:00Z,26.5545,-82.1715,2.09,33.65,1111122 
SCCF RECON,ioos:station:SCCF:51:1,2012-02-05T07:00:00Z,26.5545,-82.1715,1.96,33.46,1111122 
SCCF RECON,ioos:station:SCCF:51:1,2012-02-05T08:00:00Z,26.5545,-82.1715,1.822,33.43,1111122 
SCCF RECON,ioos:station:SCCF:51:1,2012-02-05T09:00:00Z,26.5545,-82.1715,1.698,33.35,1111122 
SCCF RECON,ioos:station:SCCF:51:1,2012-02-05T10:00:00Z,26.5545,-82.1715,1.591,33.27,1111122 
SCCF RECON,ioos:station:SCCF:51:1,2012-02-05T11:00:00Z,26.5545,-82.1715,1.52,33.27,1111122 
SCCF RECON,ioos:station:SCCF:51:1,2012-02-05T12:00:00Z,26.5545,-82.1715,1.54,33.41,1111122 
SCCF RECON,ioos:station:SCCF:51:1,2012-02-05T13:00:00Z,26.5545,-82.1715,1.639,33.42,1111122 
SCCF RECON,ioos:station:SCCF:51:1,2012-02-05T14:00:00Z,26.5545,-82.1715,1.756,33.26,1111122 
SCCF RECON,ioos:station:SCCF:51:1,2012-02-05T15:00:00Z,26.5545,-82.1715,1.885,34.36,1111122 
SCCF RECON,ioos:station:SCCF:51:1,2012-02-05T16:00:00Z,26.5545,-82.1715,1.99,34.52,1111122 
SCCF RECON,ioos:station:SCCF:51:1,2012-02-05T17:00:00Z,26.5545,-82.1715,2.052,34.32,1111122 
SCCF RECON,ioos:station:SCCF:51:1,2012-02-05T18:00:00Z,26.5545,-82.1715,2.08,34.52,1111122 
SCCF RECON,ioos:station:SCCF:51:1,2012-02-05T19:00:00Z,26.5545,-82.1715,2.047,34.54,1111122 
SCCF RECON,ioos:station:SCCF:51:1,2012-02-05T20:00:00Z,26.5545,-82.1715,2.0,34.48,1111122 
SCCF RECON,ioos:station:SCCF:51:1,2012-02-05T21:00:00Z,26.5545,-82.1715,1.96,34.38,1111122 
SCCF RECON,ioos:station:SCCF:51:1,2012-02-05T22:00:00Z,26.5545,-82.1715,1.965,34.27,1111122 
SCCF RECON,ioos:station:SCCF:51:1,2012-02-05T23:00:00Z,26.5545,-82.1715,2.027,34.18,1111122 
SCCF RECON,ioos:station:SCCF:51:1,2012-02-06T00:00:00Z,26.5545,-82.1715,2.089,34.46,1111122 
SCCF RECON,ioos:station:SCCF:51:1,2012-02-06T01:00:00Z,26.5545,-82.1715,2.16,34.46,1111122 
SCCF RECON,ioos:station:SCCF:51:1,2012-02-06T02:00:00Z,26.5545,-82.1715,2.247,34.71,1111122 
SCCF RECON,ioos:station:SCCF:51:1,2012-02-06T03:00:00Z,26.5545,-82.1715,2.328,34.79,1111122 
SCCF RECON,ioos:station:SCCF:51:1,2012-02-06T04:00:00Z,26.5545,-82.1715,2.369,34.79,1111122 
SCCF RECON,ioos:station:SCCF:51:1,2012-02-06T05:00:00Z,26.5545,-82.1715,2.33,34.7,1111122 
SCCF RECON,ioos:station:SCCF:51:1,2012-02-06T06:00:00Z,26.5545,-82.1715,2.24,34.35,1111122 
SCCF RECON,ioos:station:SCCF:51:1,2012-02-06T07:00:00Z,26.5545,-82.1715,2.107,34.06,1111122 
SCCF RECON,ioos:station:SCCF:51:1,2012-02-06T08:00:00Z,26.5545,-82.1715,1.95,33.95,1111122 
SCCF RECON,ioos:station:SCCF:51:1,2012-02-06T09:00:00Z,26.5545,-82.1715,1.81,33.85,1111122 
SCCF RECON,ioos:station:SCCF:51:1,2012-02-06T10:00:00Z,26.5545,-82.1715,1.68,33.31,1111122 
SCCF RECON,ioos:station:SCCF:51:1,2012-02-06T11:00:00Z,26.5545,-82.1715,1.575,33.28,1111122 
SCCF RECON,ioos:station:SCCF:51:1,2012-02-06T12:00:00Z,26.5545,-82.1715,1.527,33.43,1111122 
SCCF RECON,ioos:station:SCCF:51:1,2012-02-06T13:00:00Z,26.5545,-82.1715,1.591,33.55,1111122 
SCCF RECON,ioos:station:SCCF:51:1,2012-02-06T14:00:00Z,26.5545,-82.1715,1.708,33.65,1111122 
SCCF RECON,ioos:station:SCCF:51:1,2012-02-06T15:00:00Z,26.5545,-82.1715,1.86,34.06,1111122 
SCCF RECON,ioos:station:SCCF:51:1,2012-02-06T16:00:00Z,26.5545,-82.1715,1.98,34.42,1111122 
SCCF RECON,ioos:station:SCCF:51:1,2012-02-06T17:00:00Z,26.5545,-82.1715,2.06,34.34,1111122 
SCCF RECON,ioos:station:SCCF:51:1,2012-02-06T18:00:00Z,26.5545,-82.1715,2.079,34.43,1111122 
SCCF RECON,ioos:station:SCCF:51:1,2012-02-06T19:00:00Z,26.5545,-82.1715,2.041,34.02,1111122 
SCCF RECON,ioos:station:SCCF:51:1,2012-02-06T20:00:00Z,26.5545,-82.1715,1.968,33.89,1111122 
SCCF RECON,ioos:station:SCCF:51:1,2012-02-06T21:00:00Z,26.5545,-82.1715,1.893,33.77,1111122 
SCCF RECON,ioos:station:SCCF:51:1,2012-02-06T22:00:00Z,26.5545,-82.1715,1.872,33.92,1111122 
SCCF RECON,ioos:station:SCCF:51:1,2012-02-06T23:00:00Z,26.5545,-82.1715,1.891,33.83,1111122 
SCCF RECON,ioos:station:SCCF:51:1,2012-02-07T00:00:00Z,26.5545,-82.1715,1.95,33.37,1111122 
SCCF RECON,ioos:station:SCCF:51:1,2012-02-07T01:00:00Z,26.5545,-82.1715,2.018,33.79,1111122 
SCCF RECON,ioos:station:SCCF:51:1,2012-02-07T02:00:00Z,26.5545,-82.1715,2.115,34.12,1111122 
SCCF RECON,ioos:station:SCCF:51:1,2012-02-07T03:00:00Z,26.5545,-82.1715,2.22,34.63,1111122 
SCCF RECON,ioos:station:SCCF:51:1,2012-02-07T04:00:00Z,26.5545,-82.1715,2.303,34.69,1111122 
SCCF RECON,ioos:station:SCCF:51:1,2012-02-07T05:00:00Z,26.5545,-82.1715,2.32,34.47,1111122 
SCCF RECON,ioos:station:SCCF:51:1,2012-02-07T06:00:00Z,26.5545,-82.1715,2.276,34.25,1111122 
SCCF RECON,ioos:station:SCCF:51:1,2012-02-07T07:00:00Z,26.5545,-82.1715,2.179,33.95,1111122 
SCCF RECON,ioos:station:SCCF:51:1,2012-02-07T08:00:00Z,26.5545,-82.1715,2.05,33.65,1111122 
SCCF RECON,ioos:station:SCCF:51:1,2012-02-07T09:00:00Z,26.5545,-82.1715,1.91,33.55,1111122 
SCCF RECON,ioos:station:SCCF:51:1,2012-02-07T10:00:00Z,26.5545,-82.1715,1.77,33.56,1111122 
SCCF RECON,ioos:station:SCCF:51:1,2012-02-07T11:00:00Z,26.5545,-82.1715,1.65,32.81,1111122 
SCCF RECON,ioos:station:SCCF:51:1,2012-02-07T12:00:00Z,26.5545,-82.1715,1.562,32.84,1111122 
SCCF RECON,ioos:station:SCCF:51:1,2012-02-07T13:00:00Z,26.5545,-82.1715,1.565,33.06,1111122 
SCCF RECON,ioos:station:SCCF:51:1,2012-02-07T14:00:00Z,26.5545,-82.1715,1.658,33.44,1111122 
SCCF RECON,ioos:station:SCCF:51:1,2012-02-07T15:00:00Z,26.5545,-82.1715,1.8,33.25,1111122 
SCCF RECON,ioos:station:SCCF:51:1,2012-02-07T16:00:00Z,26.5545,-82.1715,1.96,34.38,1111122 
SCCF RECON,ioos:station:SCCF:51:1,2012-02-07T17:00:00Z,26.5545,-82.1715,2.075,34.42,1111122 
SCCF RECON,ioos:station:SCCF:51:1,2012-02-07T18:00:00Z,26.5545,-82.1715,2.12,34.36,1111122 
SCCF RECON,ioos:station:SCCF:51:1,2012-02-07T19:00:00Z,26.5545,-82.1715,2.11,34.44,1111122 
SCCF RECON,ioos:station:SCCF:51:1,2012-02-07T20:00:00Z,26.5545,-82.1715,2.043,33.77,1111122 
SCCF RECON,ioos:station:SCCF:51:1,2012-02-07T21:00:00Z,26.5545,-82.1715,1.962,33.64,1111122 
SCCF RECON,ioos:station:SCCF:51:1,2012-02-07T22:00:00Z,26.5545,-82.1715,1.89,33.26,1111122 
SCCF RECON,ioos:station:SCCF:51:1,2012-02-07T23:00:00Z,26.5545,-82.1715,1.851,33.32,1111122 
SCCF RECON,ioos:station:SCCF:51:1,2012-02-08T00:00:00Z,26.5545,-82.1715,1.847,33.44,1111122 
SCCF RECON,ioos:station:SCCF:51:1,2012-02-08T01:00:00Z,26.5545,-82.1715,1.903,33.61,1111122 
SCCF RECON,ioos:station:SCCF:51:1,2012-02-08T02:00:00Z,26.5545,-82.1715,1.991,33.87,1111122 
SCCF RECON,ioos:station:SCCF:51:1,2012-02-08T03:00:00Z,26.5545,-82.1715,2.107,34.17,1111122 
SCCF RECON,ioos:station:SCCF:51:1,2012-02-08T04:00:00Z,26.5545,-82.1715,2.239,34.61,1111122 
SCCF RECON,ioos:station:SCCF:51:1,2012-02-08T05:00:00Z,26.5545,-82.1715,2.299,34.66,1111122 
SCCF RECON,ioos:station:SCCF:51:1,2012-02-08T06:00:00Z,26.5545,-82.1715,2.296,34.63,1111122 
SCCF RECON,ioos:station:SCCF:51:1,2012-02-08T07:00:00Z,26.5545,-82.1715,2.219,34.44,1111122 
SCCF RECON,ioos:station:SCCF:51:1,2012-02-08T08:00:00Z,26.5545,-82.1715,2.098,33.96,1111122 
SCCF RECON,ioos:station:SCCF:51:1,2012-02-08T09:00:00Z,26.5545,-82.1715,1.96,33.71,1111122 
SCCF RECON,ioos:station:SCCF:51:1,2012-02-08T10:00:00Z,26.5545,-82.1715,1.815,33.52,1111122 
SCCF RECON,ioos:station:SCCF:51:1,2012-02-08T11:00:00Z,26.5545,-82.1715,1.695,33.43,1111122 
SCCF RECON,ioos:station:SCCF:51:1,2012-02-08T12:00:00Z,26.5545,-82.1715,1.589,33.51,1111122 
SCCF RECON,ioos:station:SCCF:51:1,2012-02-08T13:00:00Z,26.5545,-82.1715,1.543,33.5,1111122 
SCCF RECON,ioos:station:SCCF:51:1,2012-02-08T14:00:00Z,26.5545,-82.1715,1.591,33.73,1111122 
SCCF RECON,ioos:station:SCCF:51:1,2012-02-08T15:00:00Z,26.5545,-82.1715,1.701,33.76,1111122 
SCCF RECON,ioos:station:SCCF:51:1,2012-02-08T16:00:00Z,26.5545,-82.1715,1.867,34.17,1111122 
SCCF RECON,ioos:station:SCCF:51:1,2012-02-08T17:00:00Z,26.5545,-82.1715,1.997,34.63,1111122 
SCCF RECON,ioos:station:SCCF:51:1,2012-02-08T18:00:00Z,26.5545,-82.1715,2.08,34.59,1111122 
SCCF RECON,ioos:station:SCCF:51:1,2012-02-08T19:00:00Z,26.5545,-82.1715,2.082,34.54,1111122 
SCCF RECON,ioos:station:SCCF:51:1,2012-02-08T20:00:00Z,26.5545,-82.1715,2.033,34.15,1111122 
SCCF RECON,ioos:station:SCCF:51:1,2012-02-08T21:00:00Z,26.5545,-82.1715,1.94,33.96,1111122 
SCCF RECON,ioos:station:SCCF:51:1,2012-02-08T22:00:00Z,26.5545,-82.1715,1.859,33.78,1111122 
SCCF RECON,ioos:station:SCCF:51:1,2012-02-08T23:00:00Z,26.5545,-82.1715,1.795,33.82,1111122 
SCCF RECON,ioos:station:SCCF:51:1,2012-02-09T00:00:00Z,26.5545,-82.1715,1.756,33.84,1111122 
SCCF RECON,ioos:station:SCCF:51:1,2012-02-09T01:00:00Z,26.5545,-82.1715,1.776,33.91,1111122 
SCCF RECON,ioos:station:SCCF:51:1,2012-02-09T02:00:00Z,26.5545,-82.1715,1.841,34.15,1111122 
SCCF RECON,ioos:station:SCCF:51:1,2012-02-09T03:00:00Z,26.5545,-82.1715,1.948,34.54,1111122 
SCCF RECON,ioos:station:SCCF:51:1,2012-02-09T04:00:00Z,26.5545,-82.1715,2.076,34.72,1111122 
SCCF RECON,ioos:station:SCCF:51:1,2012-02-09T05:00:00Z,26.5545,-82.1715,2.199,34.81,1111122 
SCCF RECON,ioos:station:SCCF:51:1,2012-02-09T06:00:00Z,26.5545,-82.1715,2.259,34.85,1111122 
SCCF RECON,ioos:station:SCCF:51:1,2012-02-09T07:00:00Z,26.5545,-82.1715,2.233,34.84,1111122 
SCCF RECON,ioos:station:SCCF:51:1,2012-02-09T08:00:00Z,26.5545,-82.1715,2.141,34.73,1111122 
SCCF RECON,ioos:station:SCCF:51:1,2012-02-09T09:00:00Z,26.5545,-82.1715,2.028,34.52,1111122 
SCCF RECON,ioos:station:SCCF:51:1,2012-02-09T10:00:00Z,26.5545,-82.1715,1.886,33.97,1111122 
SCCF RECON,ioos:station:SCCF:51:1,2012-02-09T11:00:00Z,26.5545,-82.1715,1.751,33.87,1111122 
SCCF RECON,ioos:station:SCCF:51:1,2012-02-09T12:00:00Z,26.5545,-82.1715,1.639,33.75,1111122 
SCCF RECON,ioos:station:SCCF:51:1,2012-02-09T13:00:00Z,26.5545,-82.1715,1.558,33.77,1111122 
SCCF RECON,ioos:station:SCCF:51:1,2012-02-09T14:00:00Z,26.5545,-82.1715,1.566,33.82,1111122 
SCCF RECON,ioos:station:SCCF:51:1,2012-02-09T15:00:00Z,26.5545,-82.1715,1.659,33.95,1111122 
SCCF RECON,ioos:station:SCCF:51:1,2012-02-09T16:00:00Z,26.5545,-82.1715,1.785,34.19,1111122 
SCCF RECON,ioos:station:SCCF:51:1,2012-02-09T17:00:00Z,26.5545,-82.1715,1.942,34.7,1111122 
SCCF RECON,ioos:station:SCCF:51:1,2012-02-09T18:00:00Z,26.5545,-82.1715,2.061,34.61,1111122 
SCCF RECON,ioos:station:SCCF:51:1,2012-02-09T19:00:00Z,26.5545,-82.1715,2.125,34.46,1111122 
SCCF RECON,ioos:station:SCCF:51:1,2012-02-09T20:00:00Z,26.5545,-82.1715,2.124,34.6,1111122 
SCCF RECON,ioos:station:SCCF:51:1,2012-02-09T21:00:00Z,26.5545,-82.1715,2.058,34.37,1111122 
SCCF RECON,ioos:station:SCCF:51:1,2012-02-09T22:00:00Z,26.5545,-82.1715,1.969,34.08,1111122 
SCCF RECON,ioos:station:SCCF:51:1,2012-02-09T23:00:00Z,26.5545,-82.1715,1.862,33.54,1111122 
SCCF RECON,ioos:station:SCCF:51:1,2012-02-10T00:00:00Z,26.5545,-82.1715,1.79,33.49,1111122 
SCCF RECON,ioos:station:SCCF:51:1,2012-02-10T01:00:00Z,26.5545,-82.1715,1.762,33.81,1111122 
SCCF RECON,ioos:station:SCCF:51:1,2012-02-10T02:00:00Z,26.5545,-82.1715,1.8,33.53,1111122 
SCCF RECON,ioos:station:SCCF:51:1,2012-02-10T03:00:00Z,26.5545,-82.1715,1.883,33.34,1111122 
SCCF RECON,ioos:station:SCCF:51:1,2012-02-10T04:00:00Z,26.5545,-82.1715,2.0,34.13,1111122 
SCCF RECON,ioos:station:SCCF:51:1,2012-02-10T05:00:00Z,26.5545,-82.1715,2.132,34.76,1111122 
SCCF RECON,ioos:station:SCCF:51:1,2012-02-10T06:00:00Z,26.5545,-82.1715,2.223,34.73,1111122 
SCCF RECON,ioos:station:SCCF:51:1,2012-02-10T07:00:00Z,26.5545,-82.1715,2.262,34.64,1111122 
SCCF RECON,ioos:station:SCCF:51:1,2012-02-10T08:00:00Z,26.5545,-82.1715,2.208,34.5,1111122 
SCCF RECON,ioos:station:SCCF:51:1,2012-02-10T09:00:00Z,26.5545,-82.1715,2.12,33.9,1111122 
SCCF RECON,ioos:station:SCCF:51:1,2012-02-10T10:00:00Z,26.5545,-82.1715,2.009,33.7,1111122 
SCCF RECON,ioos:station:SCCF:51:1,2012-02-10T11:00:00Z,26.5545,-82.1715,1.9,33.86,1111122 
SCCF RECON,ioos:station:SCCF:51:1,2012-02-10T12:00:00Z,26.5545,-82.1715,1.799,33.69,1111122 
SCCF RECON,ioos:station:SCCF:51:1,2012-02-10T13:00:00Z,26.5545,-82.1715,1.714,33.41,1111122 
SCCF RECON,ioos:station:SCCF:51:1,2012-02-10T14:00:00Z,26.5545,-82.1715,1.671,33.45,1111122 
SCCF RECON,ioos:station:SCCF:51:1,2012-02-10T15:00:00Z,26.5545,-82.1715,1.732,33.57,1111122 
SCCF RECON,ioos:station:SCCF:51:1,2012-02-10T16:00:00Z,26.5545,-82.1715,1.832,33.65,1111122 
SCCF RECON,ioos:station:SCCF:51:1,2012-02-10T17:00:00Z,26.5545,-82.1715,1.989,34.24,1111122 
SCCF RECON,ioos:station:SCCF:51:1,2012-02-10T18:00:00Z,26.5545,-82.1715,2.129,34.65,1111122 
SCCF RECON,ioos:station:SCCF:51:1,2012-02-10T19:00:00Z,26.5545,-82.1715,2.218,34.61,1111122 
SCCF RECON,ioos:station:SCCF:51:1,2012-02-10T20:00:00Z,26.5545,-82.1715,2.215,34.61,1111122 
SCCF RECON,ioos:station:SCCF:51:1,2012-02-10T21:00:00Z,26.5545,-82.1715,2.169,34.06,1111122 
SCCF RECON,ioos:station:SCCF:51:1,2012-02-10T22:00:00Z,26.5545,-82.1715,2.071,33.96,1111122 
SCCF RECON,ioos:station:SCCF:51:1,2012-02-10T23:00:00Z,26.5545,-82.1715,1.945,33.74,1111122 
SCCF RECON,ioos:station:SCCF:51:1,2012-02-11T00:00:00Z,26.5545,-82.1715,1.86,33.76,1111122 
SCCF RECON,ioos:station:SCCF:51:1,2012-02-11T01:00:00Z,26.5545,-82.1715,1.793,33.53,1111122 
SCCF RECON,ioos:station:SCCF:51:1,2012-02-11T02:00:00Z,26.5545,-82.1715,1.777,33.69,1111122 
SCCF RECON,ioos:station:SCCF:51:1,2012-02-11T03:00:00Z,26.5545,-82.1715,1.809,33.92,1111122 
SCCF RECON,ioos:station:SCCF:51:1,2012-02-11T04:00:00Z,26.5545,-82.1715,1.888,33.94,1111122 
SCCF RECON,ioos:station:SCCF:51:1,2012-02-11T05:00:00Z,26.5545,-82.1715,2.0,33.95,1111122 
SCCF RECON,ioos:station:SCCF:51:1,2012-02-11T06:00:00Z,26.5545,-82.1715,2.117,34.45,1111122 
SCCF RECON,ioos:station:SCCF:51:1,2012-02-11T07:00:00Z,26.5545,-82.1715,2.131,34.64,1111122 
SCCF RECON,ioos:station:SCCF:51:1,2012-02-11T08:00:00Z,26.5545,-82.1715,2.18,34.76,1111122 
SCCF RECON,ioos:station:SCCF:51:1,2012-02-11T09:00:00Z,26.5545,-82.1715,2.161,34.75,1111122 
SCCF RECON,ioos:station:SCCF:51:1,2012-02-11T10:00:00Z,26.5545,-82.1715,2.075,34.18,1111122 
SCCF RECON,ioos:station:SCCF:51:1,2012-02-11T11:00:00Z,26.5545,-82.1715,1.962,34.14,1111122 
SCCF RECON,ioos:station:SCCF:51:1,2012-02-11T12:00:00Z,26.5545,-82.1715,1.857,34.05,1111122 
SCCF RECON,ioos:station:SCCF:51:1,2012-02-11T13:00:00Z,26.5545,-82.1715,1.782,34.03,1111122 
SCCF RECON,ioos:station:SCCF:51:1,2012-02-11T14:00:00Z,26.5545,-82.1715,1.743,34.06,1111122 
SCCF RECON,ioos:station:SCCF:51:1,2012-02-11T15:00:00Z,26.5545,-82.1715,1.757,34.08,1111122 
SCCF RECON,ioos:station:SCCF:51:1,2012-02-11T16:00:00Z,26.5545,-82.1715,1.8,34.18,1111122 
SCCF RECON,ioos:station:SCCF:51:1,2012-02-11T17:00:00Z,26.5545,-82.1715,1.865,34.43,1111122 